Location: Dal�� Lhota
(48.7500°N, 14.0167°E)
Time: 04:10:16
(UTC+00:00)

Courier 1B Rocket - Pass Details

Date: 27 July 2021
Orbit: 920 x 1202 km, 28.3° (Epoch: 26 September)

Event Time Altitude Azimuth Distance (km) Brightness Sun altitude
Rises 04:29:15 0° 227° (SW) 3,556 7.4 7.8°
Reaches altitude 10° 04:34:43 10° 188° (S) 2,602 7.0 8.6°
Maximum altitude 04:35:40 10° 179° (S) 2,577 7.1 8.8°
Drops below altitude 10° 04:36:37 10° 170° (S) 2,605 7.2 8.9°
Sets 04:42:07 0° 132° (SE) 3,579 8.4 9.8°
